www.pogodaiklimat.ru

Погода и климат >> Архив погоды >> Парагвай >> Concepcion


ПОГОДА в Concepcion

  • Прогноз погоды в Concepcion
  • Монитор погоды в Concepcion
  • Климат города

АРХИВ ПОГОДЫ в Concepcion

Время (UTC), дата Ветер
(напр.,м/с)
 
Видим.   Явления Облачность Т
(С)
Тd
(С)
f
(%)
Тe
(С)
Тes
(С)
Комфортность P
(гПа)
Po
(гПа)
Тmin
(С)
Tmax
(С)
R
(мм)
R24
(мм)
S
(см)
12 12.12 С 4 20 км 3/0
[Ci]
+30.8 +20.8 55 +38 +43 очень
душно
1012.1 1003.6 +24.2
15 12.12 С 8 20 км 4/4 1000 м
[Cu hum]
+35.4 +21.7 45 +43 +45 опасность
перегрева
1012.2 1003.8
18 12.12 С 6 20 км 6/4 1000 м
[Cu med, cong Ci sp]
+36.6 +21.1 41 +44 +47 опасность
перегрева
1010.5 1002.2
21 12.12 З 2 20 км 9/6 1000 м
[Cu med, cong Ac cuf Ci ing]
+35.8 +23.0 48 +46 +46 опасность
перегрева
1009.2 1000.9
00 13.12 В 6 20 км зарница 9/8 1000 м
[Cb cap Ac cuf Ci ing]
+25.4 +20.4 74 +31 +31 очень
душно
1008.7 1000.1 +37.2
03 13.12 В 4 20 км 6/3 1000 м
[Sc Ci ing]
+24.4 +20.6 79 +30 +30 очень
душно
1011.4 1002.7
06 13.12 СВ 4 20 км ясно +25.0 +20.6 77 +31 +31 очень
душно
1010.1 1001.5
09 13.12 СВ 6 20 км 3/0
[Ci]
+26.2 +19.8 68 +32 +32 очень
душно
1010.0 1001.4
12 13.12 С 6 20 км 5/0
[Ci sp]
+29.8 +22.6 65 +39 +42 очень
душно
1011.2 1002.7 +24.4
15 13.12 С 6 20 км 3/0
[Ci sp]
+35.2 +22.0 46 +43 +51 опасность
перегрева
1010.1 1001.7
18 13.12 С 7 20 км 8/8 1050 м
[Cu Sc]
+37.8 +20.6 37 +44 +45 опасность
перегрева
1006.9 998.6
21 13.12 штиль 0 20 км 4/4 1200 м
[Cu Sc]
+30.0 +22.8 65 +40 +42 очень
душно
1005.7 997.2
00 14.12 В 2 20 км ясно +29.2 +23.1 70 +39 +39 очень
душно
1005.7 997.2 +38.0
03 14.12 В 3 20 км ясно +27.8 +22.3 72 +36 +36 очень
душно
1007.1 998.5
06 14.12 СВ 3 20 км ясно +27.0 +21.0 70 +34 +34 очень
душно
1006.3 997.7
09 14.12 В 1 20 км 1/0
[Ci fib]
+24.8 +20.6 77 +31 +31 очень
душно
1006.3 997.7
12 14.12 С 5 20 км 1/0
[Ci fib]
+30.0 +21.2 59 +38 +42 очень
душно
1007.8 999.3 +24.6
15 14.12 С 9 20 км 4/4 900 м
[Cu hum]
+35.6 +21.3 44 +43 +44 опасность
перегрева
1008.6 1000.3
18 14.12 С 8 20 км 6/6 1050 м
[Cu Sc]
+36.6 +19.2 36 +41 +42 опасность
перегрева
1007.6 999.3
21 14.12 С 8 20 км 1/1 1200 м
[Cu med, cong]
+37.6 +20.2 36 +43 +44 опасность
перегрева
1006.7 998.4
00 15.12 В 2 20 км ясно +31.6 +22.0 57 +40 +40 очень
душно
1008.3 999.9 +38.0
03 15.12 СВ 2 20 км 1/0
[Cs]
+28.4 +21.9 68 +37 +37 очень
душно
1011.2 1002.6
06 15.12 В 1 20 км ясно +26.8 +21.3 72 +34 +34 очень
душно
1010.9 1002.3
09 15.12 В 1 20 км 4/0 2000 м
[Ac As]
+25.4 +21.7 80 +33 +33 очень
душно
1011.4 1002.8
12 15.12 С 4 20 км 9/0 2000 м
[Ac As]
+30.2 +22.4 63 +39 +41 очень
душно
1014.5 1006.0 +25.2
15 15.12 СЗ 5 20 км 3/1 750 м
[Cu hum Ac cast]
+34.2 +22.3 50 +43 +52 опасность
перегрева
1014.4 1006.0
18 15.12 З 4 20 км 4/3 1200 м
[Cu med, cong Ac As]
+36.8 +20.9 40 +44 +51 опасность
перегрева
1010.9 1002.6
21 15.12 штиль 0 20 км гроза без осадков {ливн. осадки} 9/9 900 м
[Cb cap As trans]
+28.2 +25.2 84 +41 +41 опасность
перегрева
1010.8 1002.2 13
00 16.12 ЮВ 3 20 км зарница {гроза, дождь} 10/10 900 м
[Cb cap]
+25.2 +23.2 89 +34 +34 очень
душно
1012.8 1004.2 +37.0 13
03 16.12 штиль 0 20 км ясно +25.0 +23.5 91 +34 +34 очень
душно
1012.8 1004.2
06 16.12 В 3 20 км ясно +25.4 +21.9 81 +33 +33 очень
душно
1012.8 1004.2
09 16.12 СВ 4 20 км 5/0 2000 м
[Ac As]
+25.4 +22.0 81 +33 +33 очень
душно
1012.8 1004.2
12 16.12 С 4 20 км 3/0
[Ci fib]
+28.8 +23.3 72 +39 +44 очень
душно
1015.1 1006.5 +24.6 13
15 16.12 С 4 20 км 3/3 800 м
[Cu hum]
+33.2 +22.9 55 +43 +53 опасность
перегрева
1015.0 1006.5
18 16.12 С 4 20 км 4/4 1200 м
[Cu Sc]
+35.8 +21.3 43 +43 +50 опасность
перегрева
1011.3 1002.9
21 16.12 штиль 0 20 км гроза без осадков {ливн. осадки} 9/9 1000 м
[Cb cap]
+25.4 +23.4 89 +34 +35 очень
душно
1011.5 1002.9 17
00 17.12 В 2 20 км {гроза} 9/0 2000 м
[Ac As]
+26.2 +24.4 90 +37 +37 очень
душно
1010.5 1001.9 +36.0 17
03 17.12 В 2 20 км 10/0 2000 м
[Ac As]
+26.2 +22.9 82 +35 +35 очень
душно
1012.3 1003.7
06 17.12 В 2 20 км 9/0 2000 м
[Ac As]
+25.4 +21.9 81 +33 +33 очень
душно
1011.1 1002.5
09 17.12 В 2 20 км 4/0 2000 м
[Ac As]
+25.0 +22.0 83 +32 +32 очень
душно
1010.7 1002.1
12 17.12 СВ 3 20 км 3/0
[Cs]
+29.0 +23.2 71 +39 +46 очень
душно
1013.0 1004.5 +24.6 17
15 17.12 С 5 20 км 3/1 800 м
[Cu hum Cs]
+34.0 +20.8 46 +41 +50 опасность
перегрева
1012.6 1004.2
18 17.12 СЗ 6 20 км 3/3 1000 м
[Cu hum]
+36.4 +20.9 41 +43 +48 опасность
перегрева
1009.8 1001.5
21 17.12 С 5 20 км 3/3 1000 м
[Cu hum]
+36.4 +21.1 41 +43 +44 опасность
перегрева
1007.6 999.3
00 18.12 С 3 20 км ясно +31.2 +23.8 65 +43 +43 опасность
перегрева
1008.1 999.7 +37.0
03 18.12 В 4 20 км ясно +29.2 +23.2 70 +39 +39 очень
душно
1009.9 1001.4
06 18.12 СВ 4 20 км ясно +27.6 +22.3 73 +36 +36 очень
душно
1009.5 1000.9
09 18.12 С 3 20 км ясно +26.2 +22.9 82 +35 +35 очень
душно
1010.3 1001.7
12 18.12 С 5 20 км ясно +30.6 +22.4 62 +40 +44 очень
душно
1012.4 1003.9 +26.0
15 18.12 С 6 20 км 3/0
[Ci sp]
+34.6 +21.9 48 +43 +51 опасность
перегрева
1012.3 1003.9
18 18.12 С 6 20 км 4/4 1000 м
[Cu hum]
+37.4 +18.6 33 +41 +45 опасность
перегрева
1010.4 1002.1
21 18.12 СЗ 3 20 км 3/1 1000 м
[Cu hum Ci sp]
+36.8 +19.1 36 +42 +44 опасность
перегрева
1008.5 1000.2
00 19.12 СВ 3 20 км 3/0
[Ci sp]
+31.6 +22.1 57 +40 +40 очень
душно
1010.2 1001.8 +38.4
03 19.12 В 3 20 км 1/0
[Ci fib]
+28.8 +21.9 66 +37 +37 очень
душно
1011.8 1003.3
06 19.12 СВ 4 20 км ясно +27.6 +22.1 72 +36 +36 очень
душно
1010.8 1002.2

 

Местоположение метеостанции Concepcion (Парагвай): широта -23.41 долгота -57.30 высота над уровнем моря 74 м.

В архиве по умолчанию представлена погода в Concepcion за последнюю неделю. Архивные данные за месяц целиком и за предыдущие месяцы, начиная с января 2011 года, Вы можете получить, выбрав интересующий диапазон дат из раскрывающегося списка и нажав кнопку "Ввод!".


*Определитесь, кто Вы:
робот инопланетянин человек

Внимание! Время в таблицах - всемирное. Для получения местного времени необходимо прибавить поправку, которая в Concepcion равна -4 ч.

Смотрите также архив погоды в соседних городах и на ближайших метеорологических станциях:

Погода в San Pedro (Парагвай) (76 км)
Погода в Puerto Casado (Парагвай) (138 км)
Погода в Pozo Colorado (Парагвай) (163 км)
Погода в San Estanislao (Парагвай) (164 км)
Погода в Pedro Juan Caballer (Парагвай) (185 км)
Погода в Ponta Pora (Бразилия) (191 км)
Погода в Asuncion (Парагвай) (206 км)
Погода в Ponta Pora (Бразилия) (206 км)
Погода в Amambai (Бразилия) (206 км)
Погода в Gral. Bruguez (Парагвай) (216 км)

Пояснения к столбцам:

Ветер - указаны скорость ветра в м/с - средняя за 10 мин, порывы в срок и между сроками (в фигурных скобках) и направление, откуда дует ветер: С - северный, СВ - северо-восточный, В - восточный, ЮВ - юго-восточный, Ю - южный, ЮЗ - юго-западный, З - западный, СЗ - северо-западный.
Видимость - горизонтальная дальность видимости в метрах или километрах. При видимости от 1 до 10 км при отсутствии осадков обычно наблюдается дымка, при ухудшении видимости до 1 км и менее - туман. В сухую погоду видимость может ухудшаться дымом, пылью или мглою.
Явления - указаны атмосферные явления, наблюдавшиеся в срок или в последний час перед сроком; фигурными скобками обозначены явления, наблюдавшиеся между сроками (за 1-3 часа до срока); квадратными скобками обозначены град или гололедные отложения с указанием их диаметра в мм.
Облачность - указаны через наклонную черту общая и нижняя облачность в баллах и высота нижней границы облаков в метрах; квадратными скобками обозначены формы облаков: Ci - перистые, Cs - перисто-слоистые, Cc - перисто-кучевые, Ac - высококучевые, As - высокослоистые, Sc - слоисто-кучевые, Ns - слоисто-дождевые, Cu - кучевые, Cb - кучево-дождевые. Подробнее классификацию облаков см. в Атласе облаков (PDF).
T - Температура воздуха - температура, измеренная на высоте 2 м над землей.
Td - Температура точки росы - температура, при понижении до которой содержащийся в воздухе водяной пар достигнет насыщения.
f - Относительная влажность воздуха - влажноcть воздуха, измеренная на высоте 2 м над землей.
Te - Эффективная температура - температура, которую ощущает одетый по сезону человек в тени. Характеристика душности погоды. При расчете учитывается влияние влажности воздуха и скорости ветра на теплоощущения человека.
Tes - Эффективная температура на солнце - температура, которую ощущает человек, с поправкой на солнечный нагрев. Характеристика знойности погоды. Зависит от высоты солнца над горизонтом, облачности и скорости ветра. Ночью, в пасмурную погоду, а также при ветре 12 м/с и более поправка равна нулю.
P - Атмосферное давление - приведенное к уровню моря атмосферное давление.
Po - Атмосферное давление - измеренное на уровне метеостанции атмосферное давление.
Tmin - Минимальная температура - минимум температуры воздуха на высоте 2 м над землей.
Tmax - Максимальная температура - максимум температуры воздуха на высоте 2 м над землей.
R - Количество осадков - Количество выпавших осадков за период времени, мм. При наведении курсора мыши на число - период времени, за который выпало указанное количество осадков.
R24 - Количество осадков - Количество выпавших осадков за 24 часа, мм.
S - Снежный покров - Высота снежного покрова, см. При наведении курсора мыши на число - состояние снежного покрова и степень покрытия местности в баллах.